Time,TemperatureF,DewpointF,PressureIn,WindDirection,WindDirectionDegrees,WindSpeedMPH,WindSpeedGustMPH,Humidity,HourlyPrecipIn,Conditions,Clouds,dailyrainin,SolarRadiationWatts/m^2,SoftwareType,DateUTC
2013-02-18 00:01:00,33.0,30.0,-100.00,ESE,104,4.0,5.0,88,-99.99,,,0.00,0.000000,,2013-02-18 07:01:00,
2013-02-18 00:11:00,33.0,30.0,-100.00,ESE,104,4.0,5.0,88,-99.99,,,0.00,0.000000,,2013-02-18 07:11:00,
2013-02-18 00:42:00,33.0,30.0,-100.00,ESE,120,4.0,7.0,91,-99.99,,,0.00,0.000000,,2013-02-18 07:42:00,
2013-02-18 00:52:00,33.0,30.0,-100.00,ESE,120,4.0,7.0,91,-99.99,,,0.00,0.000000,,2013-02-18 07:52:00,
2013-02-18 01:01:00,33.0,30.0,-100.00,ESE,120,4.0,7.0,91,-99.99,,,0.00,0.000000,,2013-02-18 08:01:00,
2013-02-18 01:11:00,33.0,30.0,-100.00,ESE,120,4.0,7.0,91,-99.99,,,0.00,0.000000,,2013-02-18 08:11:00,
2013-02-18 01:42:00,32.0,31.0,-100.00,East,101,5.0,8.0,96,-99.99,,,-99.99,0.000000,,2013-02-18 08:42:00,
2013-02-18 01:52:00,32.0,31.0,-100.00,East,101,5.0,8.0,96,-99.99,,,-99.99,0.000000,,2013-02-18 08:52:00,
2013-02-18 02:02:00,32.0,31.0,-100.00,East,101,5.0,8.0,96,-99.99,,,-99.99,0.000000,,2013-02-18 09:02:00,
2013-02-18 02:11:00,32.0,31.0,-100.00,East,101,5.0,8.0,96,-99.99,,,-99.99,0.000000,,2013-02-18 09:11:00,
2013-02-18 02:41:00,31.0,30.0,-100.00,East,87,5.0,7.0,94,-99.99,,,0.00,0.000000,,2013-02-18 09:41:00,
2013-02-18 02:52:00,31.0,30.0,-100.00,East,87,5.0,7.0,94,-99.99,,,0.00,0.000000,,2013-02-18 09:52:00,
2013-02-18 03:01:00,31.0,30.0,-100.00,East,87,5.0,7.0,94,-99.99,,,0.00,0.000000,,2013-02-18 10:01:00,
2013-02-18 03:11:00,31.0,30.0,-100.00,East,87,5.0,7.0,94,-99.99,,,0.00,0.000000,,2013-02-18 10:11:00,
2013-02-18 03:42:00,31.0,29.0,-100.00,East,84,3.0,5.0,91,-99.99,,,0.00,0.000000,,2013-02-18 10:42:00,
2013-02-18 03:52:00,31.0,29.0,-100.00,East,84,3.0,5.0,91,-99.99,,,0.00,0.000000,,2013-02-18 10:52:00,
2013-02-18 04:01:00,31.0,29.0,-100.00,East,84,3.0,5.0,91,-99.99,,,0.00,0.000000,,2013-02-18 11:01:00,
2013-02-18 04:11:00,31.0,29.0,-100.00,East,84,3.0,5.0,91,-99.99,,,0.00,0.000000,,2013-02-18 11:11:00,
2013-02-18 04:42:00,28.0,28.0,-100.00,NNW,343,1.0,4.0,100,-99.99,,,0.00,0.000000,,2013-02-18 11:42:00,
2013-02-18 04:53:00,28.0,28.0,-100.00,NNW,343,1.0,4.0,100,-99.99,,,0.00,0.000000,,2013-02-18 11:53:00,
2013-02-18 05:02:00,28.0,28.0,-100.00,NNW,343,1.0,4.0,100,-99.99,,,0.00,0.000000,,2013-02-18 12:02:00,
2013-02-18 05:11:00,28.0,28.0,-100.00,NNW,343,1.0,4.0,100,-99.99,,,0.00,0.000000,,2013-02-18 12:11:00,
2013-02-18 05:42:00,27.0,27.0,-100.00,NNW,332,2.0,3.0,100,-99.99,,,0.00,0.000000,,2013-02-18 12:42:00,
2013-02-18 05:53:00,27.0,27.0,-100.00,NNW,332,2.0,3.0,100,-99.99,,,0.00,0.000000,,2013-02-18 12:53:00,
2013-02-18 06:02:00,27.0,27.0,-100.00,NNW,332,2.0,3.0,100,-99.99,,,0.00,0.000000,,2013-02-18 13:02:00,
2013-02-18 06:11:00,27.0,27.0,-100.00,NNW,332,2.0,3.0,100,-99.99,,,0.00,0.000000,,2013-02-18 13:11:00,
2013-02-18 06:42:00,26.0,26.0,-100.00,NW,322,2.0,4.0,99,-99.99,,,0.00,0.000000,,2013-02-18 13:42:00,
2013-02-18 06:53:00,26.0,26.0,-100.00,NW,322,2.0,4.0,99,-99.99,,,0.00,0.000000,,2013-02-18 13:53:00,
2013-02-18 07:02:00,26.0,26.0,-100.00,NW,322,2.0,4.0,99,-99.99,,,0.00,0.000000,,2013-02-18 14:02:00,
2013-02-18 07:11:00,26.0,26.0,-100.00,NW,322,2.0,4.0,99,-99.99,,,0.00,0.000000,,2013-02-18 14:11:00,
2013-02-18 07:41:00,24.0,24.0,-100.00,NNW,341,3.0,4.0,100,-99.99,,,0.00,0.120000,,2013-02-18 14:41:00,
2013-02-18 07:53:00,24.0,24.0,-100.00,NNW,341,3.0,4.0,100,-99.99,,,0.00,0.120000,,2013-02-18 14:53:00,
2013-02-18 08:01:00,24.0,24.0,-100.00,NNW,341,3.0,4.0,100,-99.99,,,0.00,0.120000,,2013-02-18 15:01:00,
2013-02-18 08:11:00,24.0,24.0,-100.00,NNW,341,3.0,4.0,100,-99.99,,,0.00,0.120000,,2013-02-18 15:11:00,
2013-02-18 08:42:00,24.0,23.0,-100.00,NNW,348,3.0,6.0,93,-99.99,,,0.00,25.570000,,2013-02-18 15:42:00,
2013-02-18 08:52:00,24.0,23.0,-100.00,NNW,348,3.0,6.0,93,-99.99,,,0.00,25.570000,,2013-02-18 15:52:00,
2013-02-18 09:02:00,24.0,23.0,-100.00,NNW,348,3.0,6.0,93,-99.99,,,0.00,25.570000,,2013-02-18 16:02:00,
2013-02-18 09:11:00,24.0,23.0,-100.00,NNW,348,3.0,6.0,93,-99.99,,,0.00,25.570000,,2013-02-18 16:11:00,
2013-02-18 09:42:00,25.0,24.0,-100.00,NNW,331,4.0,6.0,97,-99.99,,,0.00,70.309998,,2013-02-18 16:42:00,
2013-02-18 09:53:00,25.0,24.0,-100.00,NNW,331,4.0,6.0,97,-99.99,,,0.00,70.309998,,2013-02-18 16:53:00,
2013-02-18 10:03:00,25.0,24.0,-100.00,NNW,331,4.0,6.0,97,-99.99,,,0.00,70.309998,,2013-02-18 17:03:00,
2013-02-18 10:11:00,25.0,24.0,-100.00,NNW,331,4.0,6.0,97,-99.99,,,0.00,70.309998,,2013-02-18 17:11:00,
2013-02-18 10:42:00,29.0,26.0,-100.00,NNE,23,1.0,2.0,91,-99.99,,,0.00,356.799988,,2013-02-18 17:42:00,
2013-02-18 10:53:00,29.0,26.0,-100.00,NNE,23,1.0,2.0,91,-99.99,,,0.00,356.799988,,2013-02-18 17:53:00,
2013-02-18 11:02:00,29.0,26.0,-100.00,NNE,23,1.0,2.0,91,-99.99,,,0.00,356.799988,,2013-02-18 18:02:00,
2013-02-18 11:11:00,29.0,26.0,-100.00,NNE,23,1.0,2.0,91,-99.99,,,0.00,356.799988,,2013-02-18 18:11:00,
2013-02-18 11:42:00,32.0,29.0,-100.00,West,261,2.0,4.0,89,-99.99,,,0.00,456.049988,,2013-02-18 18:42:00,
2013-02-18 11:52:00,32.0,29.0,-100.00,West,261,2.0,4.0,89,-99.99,,,0.00,456.049988,,2013-02-18 18:52:00,
2013-02-18 12:02:00,32.0,29.0,-100.00,West,261,2.0,4.0,89,-99.99,,,0.00,456.049988,,2013-02-18 19:02:00,
2013-02-18 12:11:00,32.0,29.0,-100.00,West,261,2.0,4.0,89,-99.99,,,0.00,456.049988,,2013-02-18 19:11:00,
2013-02-18 12:42:00,35.0,31.0,-100.00,NNE,33,2.0,4.0,84,-99.99,,,0.00,525.080017,,2013-02-18 19:42:00,
2013-02-18 12:53:00,35.0,31.0,-100.00,NNE,33,2.0,4.0,84,-99.99,,,0.00,525.080017,,2013-02-18 19:53:00,
2013-02-18 13:01:00,35.0,31.0,-100.00,NNE,33,2.0,4.0,84,-99.99,,,0.00,525.080017,,2013-02-18 20:01:00,
2013-02-18 13:11:00,35.0,31.0,-100.00,NNE,33,2.0,4.0,84,-99.99,,,0.00,525.080017,,2013-02-18 20:11:00,
2013-02-18 14:42:00,39.0,23.0,-100.00,SE,146,5.0,9.0,53,-99.99,,,0.00,269.510010,,2013-02-18 21:42:00,
2013-02-18 14:53:00,39.0,23.0,-100.00,SE,146,5.0,9.0,53,-99.99,,,0.00,269.510010,,2013-02-18 21:53:00,
2013-02-18 15:02:00,39.0,23.0,-100.00,SE,146,5.0,9.0,53,-99.99,,,0.00,269.510010,,2013-02-18 22:02:00,
2013-02-18 15:11:00,39.0,23.0,-100.00,SE,146,5.0,9.0,53,-99.99,,,0.00,269.510010,,2013-02-18 22:11:00,
2013-02-18 16:42:00,39.0,22.0,-100.00,South,178,5.0,8.0,50,-99.99,,,0.00,91.349998,,2013-02-18 23:42:00,
2013-02-18 16:53:00,39.0,22.0,-100.00,South,178,5.0,8.0,50,-99.99,,,0.00,91.349998,,2013-02-18 23:53:00,
2013-02-18 17:02:00,39.0,22.0,-100.00,South,178,5.0,8.0,50,-99.99,,,0.00,91.349998,,2013-02-19 00:02:00,
2013-02-18 17:11:00,39.0,22.0,-100.00,South,178,5.0,8.0,50,-99.99,,,0.00,91.349998,,2013-02-19 00:11:00,
2013-02-18 17:42:00,39.0,24.0,-100.00,East,82,4.0,5.0,54,-99.99,,,0.00,101.459999,,2013-02-19 00:42:00,
2013-02-18 17:54:00,39.0,24.0,-100.00,East,82,4.0,5.0,54,-99.99,,,0.00,101.459999,,2013-02-19 00:54:00,
2013-02-18 18:02:00,39.0,24.0,-100.00,East,82,4.0,5.0,54,-99.99,,,0.00,101.459999,,2013-02-19 01:02:00,
2013-02-18 18:12:00,39.0,24.0,-100.00,East,82,4.0,5.0,54,-99.99,,,0.00,101.459999,,2013-02-19 01:12:00,
2013-02-18 18:43:00,36.0,22.0,-100.00,NE,53,2.0,4.0,55,-99.99,,,0.00,1.980000,,2013-02-19 01:43:00,
2013-02-18 18:55:00,36.0,22.0,-100.00,NE,53,2.0,4.0,55,-99.99,,,0.00,1.980000,,2013-02-19 01:55:00,
2013-02-18 19:02:00,36.0,22.0,-100.00,NE,53,2.0,4.0,55,-99.99,,,0.00,1.980000,,2013-02-19 02:02:00,
2013-02-18 19:12:00,36.0,22.0,-100.00,NE,53,2.0,4.0,55,-99.99,,,0.00,1.980000,,2013-02-19 02:12:00,
2013-02-18 19:42:00,32.0,26.0,-100.00,NW,312,2.0,3.0,77,-99.99,,,0.00,0.000000,,2013-02-19 02:42:00,
2013-02-18 19:54:00,32.0,26.0,-100.00,NW,312,2.0,3.0,77,-99.99,,,0.00,0.000000,,2013-02-19 02:54:00,
2013-02-18 20:04:00,32.0,26.0,-100.00,NW,312,2.0,3.0,77,-99.99,,,0.00,0.000000,,2013-02-19 03:04:00,
2013-02-18 20:12:00,32.0,26.0,-100.00,NW,312,2.0,3.0,77,-99.99,,,0.00,0.000000,,2013-02-19 03:12:00,
2013-02-18 20:43:00,31.0,27.0,-100.00,SW,227,2.0,2.0,83,-99.99,,,0.00,0.000000,,2013-02-19 03:43:00,
2013-02-18 20:54:00,31.0,27.0,-100.00,SW,227,2.0,2.0,83,-99.99,,,0.00,0.000000,,2013-02-19 03:54:00,
2013-02-18 21:02:00,31.0,27.0,-100.00,SW,227,2.0,2.0,83,-99.99,,,0.00,0.000000,,2013-02-19 04:02:00,
2013-02-18 21:12:00,31.0,27.0,-100.00,SW,227,2.0,2.0,83,-99.99,,,0.00,0.000000,,2013-02-19 04:12:00,
2013-02-18 21:43:00,30.0,26.0,-100.00,NNE,17,2.0,3.0,83,-99.99,,,0.00,0.000000,,2013-02-19 04:43:00,
2013-02-18 21:54:00,30.0,26.0,-100.00,NNE,17,2.0,3.0,83,-99.99,,,0.00,0.000000,,2013-02-19 04:54:00,
2013-02-18 22:01:00,30.0,26.0,-100.00,NNE,17,2.0,3.0,83,-99.99,,,0.00,0.000000,,2013-02-19 05:01:00,
2013-02-18 22:12:00,30.0,26.0,-100.00,NNE,17,2.0,3.0,83,-99.99,,,0.00,0.000000,,2013-02-19 05:12:00,
2013-02-18 22:43:00,29.0,28.0,-100.00,NE,34,2.0,4.0,95,-99.99,,,0.00,0.000000,,2013-02-19 05:43:00,
2013-02-18 22:52:00,29.0,28.0,-100.00,NE,34,2.0,4.0,95,-99.99,,,0.00,0.000000,,2013-02-19 05:52:00,
2013-02-18 23:02:00,29.0,28.0,-100.00,NE,34,2.0,4.0,95,-99.99,,,0.00,0.000000,,2013-02-19 06:02:00,
2013-02-18 23:11:00,29.0,28.0,-100.00,NE,34,2.0,4.0,95,-99.99,,,0.00,0.000000,,2013-02-19 06:11:00,
2013-02-18 23:42:00,29.0,28.0,-100.00,NNE,16,1.0,2.0,93,-99.99,,,0.00,0.000000,,2013-02-19 06:42:00,
2013-02-18 23:52:00,29.0,28.0,-100.00,NNE,16,1.0,2.0,93,-99.99,,,0.00,0.000000,,2013-02-19 06:52:00,